[TLELIST] Archives

 

[TLELIST] Current TLEs

December 20th 2023 PDT

HST 1 20580U 90037B 23353.53864154 .00005659 00000-0 28335-3 0 9995 2 20580 28.4686 113.0071 0002179 219.1690 196.6836 15.15225025649580 ISS (ZARYA) 1 25544U 98067A 23354.41299744 .00018101 00000-0 31769-3 0 9997 2 25544 51.6404 126.0928 0001896 47.3717 45.7843 15.50595703430674 CXO 1 25867U 99040B 23353.05191155 .00000511 00000-0 00000-0 0 9990 2 25867 37.9681 173.3720 9018436 281.5573 0.2489 0.37806864 13884 ...Continue Reading

[TLELIST] Current TLEs

December 19th 2023 PDT

HST 1 20580U 90037B 23352.75896513 .00005814 00000-0 29141-3 0 9991 2 20580 28.4686 118.2107 0002230 209.6965 264.7067 15.15215952649462 ISS (ZARYA) 1 25544U 98067A 23353.44924648 .00019019 00000-0 33374-3 0 9990 2 25544 51.6398 130.8734 0002045 36.8913 72.9727 15.50562609430528 CXO 1 25867U 99040B 23353.05191155 .00000511 00000-0 00000-0 0 9990 2 25867 37.9681 173.3720 9018436 281.5573 0.2489 0.37806864 13884 ...Continue Reading

[TLELIST] Current TLEs

December 18th 2023 PDT

HST 1 20580U 90037B 23351.84020922 .00004976 00000-0 24811-3 0 9990 2 20580 28.4681 124.3424 0002210 198.1196 294.7049 15.15204489649324 ISS (ZARYA) 1 25544U 98067A 23351.90722637 .00018430 00000-0 32438-3 0 9999 2 25544 51.6406 138.5176 0002199 38.2837 98.4608 15.50501267430281 CXO 1 25867U 99040B 23353.05191155 .00000511 00000-0 00000-0 0 9990 2 25867 37.9681 173.3720 9018436 281.5573 0.2489 0.37806864 13884 ...Continue Reading

[TLELIST] Current TLEs

December 17th 2023 PDT

HST 1 20580U 90037B 23350.85185443 .00003950 00000-0 19498-3 0 9996 2 20580 28.4677 130.9389 0002280 185.8113 305.0748 15.15193405649171 ISS (ZARYA) 1 25544U 98067A 23350.94162340 .00013182 00000-0 23473-3 0 9999 2 25544 51.6404 143.3031 0001948 36.0384 107.4005 15.50461250430130 CXO 1 25867U 99040B 23353.05191155 .00000511 00000-0 00000-0 0 9990 2 25867 37.9681 173.3720 9018436 281.5573 0.2489 0.37806864 13884 ...Continue Reading

[TLELIST] Current TLEs

December 16th 2023 PDT

HST 1 20580U 90037B 23349.66238875 .00003662 00000-0 18011-3 0 9991 2 20580 28.4672 138.8770 0002512 174.6874 295.1164 15.15183129648997 ISS (ZARYA) 1 25544U 98067A 23350.41698703 .00014861 00000-0 26367-3 0 9998 2 25544 51.6405 145.9039 0001917 35.5611 57.6211 15.50451193430051 CXO 1 25867U 99040B 23353.05171036 .00000511 00000-0 00000+0 0 9995 2 25867 37.9685 173.3829 9018427 281.5460 0.2219 0.37809532 25039 ...Continue Reading

[TLELIST] Current TLEs

December 15th 2023 PDT

HST 1 20580U 90037B 23348.74338552 .00003339 00000-0 16337-3 0 9992 2 20580 28.4670 145.0097 0002659 166.5102 320.4680 15.15176045648852 ISS (ZARYA) 1 25544U 98067A 23349.38384836 .00022434 00000-0 39396-3 0 9992 2 25544 51.6414 151.0242 0002072 34.3439 48.5014 15.50428682429890 CXO 1 25867U 99040B 23350.40701881 .00000633 00000-0 00000-0 0 9994 2 25867 37.9402 173.6644 9017972 281.3330 0.1016 0.37810014 13861 ...Continue Reading

[TLELIST] Current TLEs

December 14th 2023 PDT

HST 1 20580U 90037B 23347.88597087 .00002975 00000-0 14447-3 0 9991 2 20580 28.4669 150.7324 0002679 157.0353 323.7499 15.15169963648722 ISS (ZARYA) 1 25544U 98067A 23348.35012875 .00012884 00000-0 23017-3 0 9990 2 25544 51.6390 156.1528 0001952 31.7296 37.6397 15.50391551429734 CXO 1 25867U 99040B 23350.40701881 .00000633 00000-0 00000-0 0 9994 2 25867 37.9402 173.6644 9017972 281.3330 0.1016 0.37810014 13861 ...Continue Reading

[TLELIST] Current TLEs

December 13th 2023 PDT

HST 1 20580U 90037B 23346.89747539 .00003316 00000-0 16219-3 0 9999 2 20580 28.4669 157.3300 0002649 145.9536 332.2393 15.15165747648572 ISS (ZARYA) 1 25544U 98067A 23347.50845237 .00010427 00000-0 18800-3 0 9997 2 25544 51.6399 160.3272 0001810 32.8388 15.7236 15.50368084429603 CXO 1 25867U 99040B 23347.76477827 .00000639 00000-0 00000-0 0 9995 2 25867 37.9063 173.9791 9019630 281.0901 0.2951 0.37814189 13859 ...Continue Reading

[TLELIST] Current TLEs

December 12th 2023 PDT

HST 1 20580U 90037B 23345.90896965 .00002753 00000-0 13302-3 0 9992 2 20580 28.4669 163.9271 0002675 135.9015 339.6631 15.15158745648680 ISS (ZARYA) 1 25544U 98067A 23346.48488243 .00009629 00000-0 17435-3 0 9998 2 25544 51.6403 165.3999 0001556 25.8245 66.1371 15.50347832429441 CXO 1 25867U 99040B 23347.76477827 .00000639 00000-0 00000-0 0 9995 2 25867 37.9063 173.9791 9019630 281.0901 0.2951 0.37814189 13859 ...Continue Reading

[TLELIST] Current TLEs

December 11th 2023 PDT

HST 1 20580U 90037B 23344.78928087 .00003133 00000-0 15278-3 0 9995 2 20580 28.4669 171.3996 0002723 124.5264 351.4574 15.15153596648251 ISS (ZARYA) 1 25544U 98067A 23345.00370002 .00009797 00000-0 17741-3 0 9994 2 25544 51.6402 172.7364 0001393 16.7918 82.9368 15.50320011429210 CXO 1 25867U 99040B 23347.76477827 .00000639 00000-0 00000+0 0 9994 2 25867 37.9063 173.9791 9019630 281.0901 0.2951 0.37814189 25010 ...Continue Reading
  • This mailing list is a public mailing list - anyone may join or leave, at any time.
  • This mailing list is announce-only.

International Space Station (ISS) / Hubble Space Telescope (HST) / Chandra X-Ray Observatory Orbital Data via EMAIL

Privacy Policy:

Private list